| time (UTC) | temp F | wind direction | speed MPH | gust MPH | rain 1hr in | rain 24hr in | rain mn in | humidity % | barometer mb |
| 20260509005015 | 47 | 284 | 4.0 | 12.0 | 0.00 | 0.00 | 0.00 | 54 | 1001.0 |
| 20260509003511 | 46 | 339 | 1.0 | 7.0 | 0.00 | 0.00 | 0.00 | 54 | 1001.2 |
| 20260509002007 | 46 | 333 | 5.0 | 13.0 | 0.00 | 0.00 | 0.00 | 54 | 1001.5 |
| 20260509000501 | 47 | 277 | 4.0 | 10.0 | 0.00 | 0.00 | 0.00 | 50 | 1001.6 |
| 20260508234957 | 47 | 311 | 6.0 | 10.0 | 0.00 | 0.00 | 0.00 | 52 | 1001.8 |
| 20260508233453 | 47 | 308 | 6.0 | 11.0 | 0.00 | 0.00 | 0.00 | 50 | 1002.0 |
| 20260508231949 | 48 | 294 | 3.0 | 10.0 | 0.00 | 0.00 | 0.00 | 50 | 1002.0 |
| 20260508230443 | 47 | 313 | 4.0 | 11.0 | 0.00 | 0.00 | 0.00 | 51 | 1002.2 |
| 20260508223433 | 47 | 0 | 0.0 | 6.0 | 0.00 | 0.00 | 0.00 | 46 | 1002.5 |
| 20260508221929 | 47 | 326 | 3.0 | 9.0 | 0.00 | 0.00 | 0.00 | 46 | 1002.6 |
| 20260508220425 | 47 | 310 | 9.0 | 15.0 | 0.00 | 0.00 | 0.00 | 45 | 1002.8 |
| 20260508214921 | 48 | 295 | 9.0 | 14.0 | 0.00 | 0.00 | 0.00 | 45 | 1002.9 |
| 20260508213417 | 48 | 337 | 2.0 | 10.0 | 0.00 | 0.00 | 0.00 | 43 | 1003.1 |
| 20260508211913 | 47 | 293 | 1.0 | 6.0 | 0.00 | 0.00 | 0.00 | 48 | 1003.3 |
| 20260508210409 | 47 | 300 | 3.0 | 7.0 | 0.00 | 0.00 | 0.00 | 46 | 1003.5 |
| 20260508204903 | 46 | 0 | 0.0 | 5.0 | 0.00 | 0.00 | 0.00 | 47 | 1003.7 |
| 20260508203359 | 45 | 0 | 0.0 | 5.0 | 0.00 | 0.00 | 0.00 | 50 | 1004.1 |
| 20260508201855 | 45 | 276 | 4.0 | 9.0 | 0.00 | 0.00 | 0.00 | 51 | 1004.2 |
| 20260508200351 | 45 | 251 | 1.0 | 5.0 | 0.00 | 0.00 | 0.00 | 54 | 1004.2 |
| 20260508194847 | 45 | 319 | 1.0 | 6.0 | 0.00 | 0.00 | 0.00 | 55 | 1004.5 |
| 20260508193343 | 44 | 294 | 5.0 | 7.0 | 0.00 | 0.00 | 0.00 | 55 | 1004.6 |
| 20260508191839 | 44 | 0 | 0.0 | 6.0 | 0.00 | 0.00 | 0.00 | 57 | 1004.8 |
| 20260508190335 | 43 | 0 | 0.0 | 7.0 | 0.00 | 0.00 | 0.00 | 57 | 1005.1 |
| 20260508184831 | 43 | 294 | 1.0 | 10.0 | 0.00 | 0.00 | 0.00 | 58 | 1005.2 |
| 20260508183327 | 44 | 301 | 6.0 | 10.0 | 0.00 | 0.00 | 0.00 | 58 | 1005.4 |
| 20260508181823 | 44 | 299 | 6.0 | 11.0 | 0.00 | 0.00 | 0.00 | 59 | 1005.6 |
| 20260508180319 | 42 | 0 | 0.0 | 0.0 | 0.00 | 0.00 | 0.00 | 67 | 1005.8 |
| 20260508174815 | 40 | 314 | 1.0 | 3.0 | 0.00 | 0.00 | 0.00 | 69 | 1006.2 |
| 20260508173311 | 40 | 0 | 0.0 | 0.0 | 0.00 | 0.00 | 0.00 | 71 | 1006.3 |
| 20260508171807 | 40 | 0 | 0.0 | 0.0 | 0.00 | 0.00 | 0.00 | 72 | 1006.5 |
| 20260508170303 | 39 | 0 | 0.0 | 0.0 | 0.00 | 0.00 | 0.00 | 74 | 1006.7 |
| 20260508164759 | 39 | 0 | 0.0 | 3.0 | 0.00 | 0.00 | 0.00 | 75 | 1006.8 |
| 20260508163255 | 38 | 0 | 0.0 | 0.0 | 0.00 | 0.00 | 0.00 | 80 | 1006.9 |
| 20260508160245 | 37 | 0 | 0.0 | 0.0 | 0.00 | 0.00 | 0.00 | 82 | 1007.3 |
| 20260508154741 | 36 | 0 | 0.0 | 0.0 | 0.00 | 0.00 | 0.00 | 82 | 1007.4 |
| 20260508153237 | 36 | 0 | 0.0 | 0.0 | 0.00 | 0.00 | 0.00 | 83 | 1007.5 |
| 20260508151733 | 36 | 0 | 0.0 | 0.0 | 0.00 | 0.00 | 0.00 | 83 | 1007.8 |
| 20260508150229 | 36 | 0 | 0.0 | 0.0 | 0.00 | 0.00 | 0.00 | 82 | 1007.9 |
| 20260508144723 | 36 | 0 | 0.0 | 0.0 | 0.00 | 0.00 | 0.00 | 83 | 1008.1 |
| 20260508143219 | 35 | 0 | 0.0 | 0.0 | 0.00 | 0.00 | 0.00 | 83 | 1008.3 |
| 20260508141713 | 35 | 0 | 0.0 | 0.0 | 0.00 | 0.00 | 0.00 | 82 | 1008.4 |
| 20260508134703 | 36 | 0 | 0.0 | 0.0 | 0.00 | 0.00 | 0.00 | 81 | 1008.8 |
| 20260508133159 | 36 | 0 | 0.0 | 0.0 | 0.00 | 0.00 | 0.00 | 81 | 1008.9 |
| 20260508131653 | 36 | 0 | 0.0 | 0.0 | 0.00 | 0.00 | 0.00 | 81 | 1009.1 |
| 20260508130149 | 36 | 0 | 0.0 | 0.0 | 0.00 | 0.00 | 0.00 | 80 | 1009.3 |
| 20260508124643 | 36 | 0 | 0.0 | 0.0 | 0.00 | 0.00 | 0.00 | 80 | 1009.4 |
| 20260508123139 | 37 | 0 | 0.0 | 0.0 | 0.00 | 0.00 | 0.00 | 80 | 1009.4 |
| 20260508121635 | 37 | 0 | 0.0 | 0.0 | 0.00 | 0.00 | 0.00 | 80 | 1009.6 |
| 20260508120131 | 37 | 0 | 0.0 | 0.0 | 0.00 | 0.00 | 0.00 | 79 | 1009.7 |
| 20260508114627 | 37 | 0 | 0.0 | 0.0 | 0.00 | 0.00 | 0.00 | 79 | 1009.9 |
| 20260508113121 | 37 | 0 | 0.0 | 0.0 | 0.00 | 0.00 | 0.00 | 80 | 1010.0 |
| 20260508111617 | 37 | 0 | 0.0 | 0.0 | 0.00 | 0.00 | 0.00 | 80 | 1010.1 |
| 20260508110111 | 38 | 0 | 0.0 | 0.0 | 0.00 | 0.00 | 0.00 | 80 | 1010.4 |
| 20260508103101 | 38 | 347 | 1.0 | 3.0 | 0.00 | 0.00 | 0.00 | 79 | 1010.4 |
| 20260508101555 | 38 | 0 | 0.0 | 4.0 | 0.00 | 0.00 | 0.00 | 79 | 1010.5 |
| 20260508094545 | 39 | 0 | 0.0 | 1.0 | 0.00 | 0.00 | 0.00 | 76 | 1010.7 |
| 20260508093041 | 39 | 0 | 0.0 | 2.0 | 0.00 | 0.00 | 0.00 | 76 | 1010.8 |
| 20260508091537 | 39 | 0 | 0.0 | 0.0 | 0.00 | 0.00 | 0.00 | 74 | 1010.8 |
| 20260508090033 | 39 | 0 | 0.0 | 3.0 | 0.00 | 0.00 | 0.00 | 72 | 1010.8 |
| 20260508084529 | 39 | 0 | 0.0 | 2.0 | 0.00 | 0.00 | 0.00 | 69 | 1010.9 |
| 20260508083025 | 39 | 0 | 0.0 | 0.0 | 0.00 | 0.00 | 0.00 | 69 | 1011.0 |
| 20260508081521 | 39 | 0 | 0.0 | 1.0 | 0.00 | 0.00 | 0.00 | 66 | 1011.1 |
| 20260508080017 | 40 | 0 | 0.0 | 2.0 | 0.00 | 0.00 | 0.00 | 67 | 1011.4 |
| 20260508074513 | 40 | 0 | 0.0 | 0.0 | 0.00 | 0.00 | 0.00 | 67 | 1011.4 |
| 20260508073007 | 40 | 0 | 0.0 | 0.0 | 0.00 | 0.00 | 0.00 | 63 | 1011.5 |
| 20260508065957 | 41 | 0 | 0.0 | 0.0 | 0.00 | 0.00 | 0.00 | 60 | 1011.6 |
| 20260508064453 | 42 | 0 | 0.0 | 0.0 | 0.00 | 0.00 | 0.00 | 57 | 1011.7 |
| 20260508062949 | 42 | 0 | 0.0 | 4.0 | 0.00 | 0.00 | 0.00 | 56 | 1011.9 |
| 20260508061445 | 42 | 0 | 0.0 | 4.0 | 0.00 | 0.00 | 0.00 | 58 | 1011.9 |
| 20260508055941 | 43 | 0 | 0.0 | 0.0 | 0.00 | 0.00 | 0.00 | 58 | 1011.7 |
| 20260508054437 | 44 | 0 | 0.0 | 0.0 | 0.00 | 0.00 | 0.00 | 55 | 1011.8 |
| 20260508052933 | 44 | 0 | 0.0 | 0.0 | 0.00 | 0.00 | 0.00 | 53 | 1012.0 |
| 20260508045923 | 44 | 0 | 0.0 | 2.0 | 0.00 | 0.00 | 0.00 | 52 | 1012.1 |
| 20260508044419 | 45 | 0 | 0.0 | 6.0 | 0.00 | 0.00 | 0.00 | 52 | 1012.1 |
| 20260508042915 | 45 | 0 | 0.0 | 10.0 | 0.00 | 0.01 | 0.00 | 51 | 1012.3 |
| 20260508041411 | 45 | 0 | 0.0 | 6.0 | 0.00 | 0.01 | 0.00 | 50 | 1012.5 |
| 20260508035907 | 45 | 0 | 0.0 | 4.0 | 0.00 | 0.01 | 0.00 | 50 | 1012.6 |
| 20260508034403 | 46 | 0 | 0.0 | 11.0 | 0.00 | 0.01 | 0.00 | 49 | 1012.7 |
| 20260508032859 | 46 | 145 | 3.0 | 8.0 | 0.00 | 0.01 | 0.00 | 48 | 1012.7 |
| 20260508031355 | 46 | 124 | 2.0 | 12.0 | 0.00 | 0.01 | 0.00 | 46 | 1012.8 |
| 20260508025851 | 47 | 119 | 1.0 | 7.0 | 0.00 | 0.01 | 0.00 | 46 | 1013.0 |
| 20260508024345 | 47 | 140 | 1.0 | 10.0 | 0.00 | 0.01 | 0.00 | 46 | 1013.2 |
| 20260508022841 | 47 | 124 | 3.0 | 7.0 | 0.00 | 0.01 | 0.00 | 47 | 1013.3 |
| 20260508021337 | 46 | 154 | 2.0 | 10.0 | 0.00 | 0.01 | 0.00 | 46 | 1013.4 |
| 20260508015833 | 47 | 133 | 3.0 | 11.0 | 0.00 | 0.01 | 0.00 | 47 | 1013.4 |
| 20260508014329 | 47 | 131 | 3.0 | 12.0 | 0.00 | 0.01 | 0.00 | 46 | 1013.5 |
| 20260508012823 | 47 | 129 | 5.0 | 11.0 | 0.00 | 0.01 | 0.00 | 44 | 1013.6 |
| 20260508011319 | 47 | 153 | 3.0 | 10.0 | 0.00 | 0.01 | 0.00 | 44 | 1013.6 |